Theta_e
288 288 289 291 289 288 286 285 287 282 280 281 281 286 287 288 289 289 285 291 294 295 296 295 296 296 296 297 297 297 297 296 296 296 296 295 295 296
286 286 287 289 288 287 289 286 284 288 285 283 282 282 287 288 288 287 284 288 292 293 294 295 295 295 296 296 296 296 296 296 295 294 294 294 294 294
285 285 285 286 288 288 285 286 286 283 287 285 281 282 284 286 285 286 284 284 285 291 293 294 294 294 294 295 295 295 295 295 294 294 293 292 293 293
284 284 285 286 284 286 286 287 287 284 287 286 279 280 282 285 285 283 282 283 282 288 291 293 293 293 293 294 294 294 293 293 293 292 291 292 292 291
284 284 284 284 284 285 286 286 287 287 285 286 283 279 280 282 280 281 280 280 280 285 290 291 292 293 293 293 293 292 292 292 291 290 290 291 291 291
283 284 284 284 284 285 285 285 285 285 284 283 284 278 278 279 282 280 278 279 279 280 284 287 290 291 292 292 293 292 291 290 290 290 289 290 290 290
282 282 283 284 286 287 285 285 285 284 285 284 283 277 277 278 280 280 280 280 279 279 279 281 284 286 287 291 290 291 290 290 290 289 289 289 289 289
281 282 282 282 284 288 289 290 289 285 283 284 284 283 281 282 281 280 280 277 275 279 278 278 282 282 283 285 290 290 290 290 289 289 289 289 288 288
280 281 282 283 282 282 285 288 289 291 291 286 284 285 284 282 281 281 280 280 280 278 279 278 279 279 281 283 289 290 289 289 289 288 289 288 288 287
279 280 280 281 282 282 282 282 283 284 286 287 288 287 287 283 283 283 282 282 281 279 280 277 278 278 280 281 287 289 289 288 288 288 288 288 288 287
276 277 278 279 283 285 282 281 281 282 286 289 290 291 292 291 284 282 281 279 278 276 279 278 278 279 280 280 282 288 288 288 288 288 288 288 286 286
273 275 278 279 282 283 281 281 280 281 282 282 284 287 289 289 290 283 282 279 280 277 279 278 277 277 275 279 280 283 285 289 288 288 288 286 286 281
272 273 275 279 281 282 284 282 282 283 283 282 282 283 285 286 286 286 283 283 281 281 279 280 278 277 276 274 278 280 282 283 283 285 287 286 285 282
270 272 274 278 280 281 282 284 287 287 284 282 281 282 282 283 285 285 284 283 284 284 279 282 278 278 274 272 273 277 278 280 281 280 280 283 283 283
269 271 274 275 278 279 281 285 284 283 283 283 281 280 282 283 284 284 284 283 282 280 280 282 280 278 278 274 273 275 275 277 278 277 277 277 277 278
269 268 270 272 275 276 277 281 282 282 281 282 283 281 282 282 281 282 281 280 278 278 278 281 279 278 277 275 274 274 275 273 276 276 276 276 277 277
269 267 267 269 270 271 276 277 277 279 279 281 283 281 281 280 279 279 279 276 276 274 272 274 277 277 276 274 272 274 273 273 275 275 275 274 275 276
271 269 268 268 268 269 271 274 275 276 278 281 281 281 280 278 278 278 278 276 275 273 272 272 272 271 271 272 274 272 273 273 274 274 273 271 271 274
269 268 267 267 268 270 271 273 275 277 279 280 281 281 279 278 277 277 276 275 274 272 272 271 271 271 267 266 269 276 271 272 272 272 272 271 270 272
269 268 267 267 268 269 271 272 274 277 278 279 280 280 278 278 276 275 274 273 274 271 271 271 271 271 270 269 267 271 275 271 271 270 270 270 271 273
267 268 268 268 268 269 271 272 274 276 277 277 279 278 278 276 274 274 273 273 273 271 268 268 271 273 271 270 267 267 272 275 273 270 270 268 267 267
264 264 266 270 270 272 272 273 275 276 276 277 277 276 275 275 273 273 272 271 271 270 270 270 271 269 269 268 266 266 268 270 273 274 273 271 267 264
263 264 268 271 272 274 277 276 276 275 276 275 274 273 273 272 273 272 271 271 270 269 268 267 268 269 267 267 267 266 266 267 267 266 267 270 271 271
Wind_Speed
7 9 9 8 6 6 4 5 8 8 8 6 5 11 10 8 12 13 11 19 21 21 20 19 18 17 16 15 13 10 9 7 5 4 4 3 2 1
5 7 9 8 7 5 8 5 5 12 12 8 10 6 12 10 12 13 12 17 22 22 21 20 19 18 17 16 15 14 12 10 7 5 3 3 2 1
7 7 9 8 9 8 4 6 8 5 14 7 4 5 9 12 9 12 11 12 10 22 22 22 21 19 18 18 16 15 14 13 10 9 6 4 3 2
8 7 9 7 8 10 7 11 10 6 11 16 5 5 7 14 12 13 11 9 9 19 24 23 22 21 20 20 19 18 16 15 13 11 9 8 6 3
9 9 10 8 10 9 10 11 10 9 8 12 8 3 5 5 4 6 9 8 7 17 24 23 23 23 22 22 20 19 18 17 15 13 13 12 9 7
10 10 10 10 12 11 9 12 11 9 7 10 9 4 3 4 8 9 7 7 10 8 15 15 20 23 24 23 23 19 19 18 17 16 15 14 12 9
11 10 11 13 17 16 9 11 10 11 11 10 12 4 5 5 15 8 11 8 10 8 8 8 10 11 13 22 16 20 21 20 18 17 17 15 13 12
14 13 11 12 16 23 25 25 19 12 15 12 12 15 16 10 9 10 10 7 8 9 10 12 11 11 10 10 20 23 24 21 20 19 18 16 15 14
16 15 14 11 12 12 19 24 25 28 28 17 18 19 14 12 11 14 15 13 11 7 16 13 11 13 10 11 25 26 25 23 22 20 19 18 16 14
18 18 18 18 16 14 14 14 16 16 19 16 21 20 17 10 17 17 17 17 4 3 13 10 8 12 10 9 26 28 27 26 25 22 21 20 18 15
19 20 19 20 25 29 18 17 16 17 19 28 30 30 26 23 18 11 12 10 10 4 12 5 7 8 9 9 11 29 27 27 26 25 23 21 18 16
19 21 29 28 34 33 21 18 17 19 14 15 15 24 26 21 24 20 14 15 13 8 9 10 6 6 4 4 9 10 13 25 26 25 24 21 20 5
15 15 14 30 34 34 32 19 21 18 18 14 13 12 13 15 14 15 18 15 15 14 9 15 8 7 2 4 6 10 10 11 11 16 25 23 21 14
18 15 17 32 35 36 30 32 32 28 14 12 12 13 13 13 14 13 17 16 14 17 13 20 7 11 8 6 6 9 9 9 9 9 8 15 19 17
15 24 38 38 35 32 38 36 28 15 13 14 13 14 13 12 13 13 13 16 10 3 9 18 11 13 11 4 7 11 15 10 10 10 9 9 7 6
25 19 22 28 33 30 25 22 14 13 12 13 13 12 10 9 11 9 9 9 8 8 4 10 9 7 9 2 5 10 9 11 12 9 9 7 6 6
18 14 13 13 12 13 13 9 7 9 12 14 13 11 10 10 10 9 9 8 9 7 6 3 6 4 2 5 4 10 10 5 11 10 8 8 6 6
16 13 13 12 13 12 12 10 9 11 13 14 13 11 10 11 11 9 10 11 11 9 9 7 7 6 2 2 2 7 6 7 9 10 8 5 5 5
12 12 12 12 13 12 10 12 11 10 10 11 11 11 10 11 12 11 11 10 9 10 10 9 10 11 9 8 2 9 5 5 8 7 6 4 4 6
12 13 12 11 10 9 11 9 10 10 8 10 10 10 10 12 10 11 12 12 12 8 9 8 10 11 11 10 5 4 14 7 6 7 6 3 2 5
11 12 11 11 11 11 12 12 13 11 10 9 10 9 9 10 11 12 12 16 14 10 10 11 11 13 7 7 4 3 7 11 7 7 6 5 3 2
11 11 13 11 11 11 12 12 12 12 9 9 8 8 9 10 11 11 11 11 11 10 8 7 11 10 6 4 7 7 4 5 8 10 7 5 4 3
12 12 12 6 8 10 9 9 7 5 7 6 5 6 7 8 7 8 8 9 9 9 11 10 8 7 5 7 10 7 7 7 4 4 2 6 7 11
Wind_Direction
239 238 239 245 241 230 201 181 219 242 228 230 208 205 203 187 196 193 191 200 207 214 216 215 210 205 201 201 200 201 204 198 193 182 163 145 127 95
247 239 247 250 244 231 238 225 220 241 256 191 217 199 198 198 193 190 197 195 207 212 214 216 216 212 209 205 201 199 197 194 194 198 198 175 171 177
271 248 247 242 252 250 224 226 234 211 251 247 210 201 195 198 194 196 187 197 207 211 215 214 214 214 212 209 207 203 199 196 193 190 193 193 208 210
272 265 263 255 253 255 244 247 239 213 239 251 205 202 196 203 197 191 197 202 197 209 213 215 214 212 213 213 209 206 202 200 193 191 189 189 190 191
276 268 261 255 257 257 254 254 245 243 228 245 235 198 203 187 165 197 195 198 203 205 212 216 218 215 212 215 215 211 205 202 199 193 190 187 182 183
276 271 265 254 256 254 244 249 252 240 227 232 237 197 190 187 193 192 194 201 206 203 217 214 215 218 218 214 214 214 211 205 204 201 194 187 179 185
278 266 262 259 256 252 250 245 236 241 241 234 240 204 197 167 197 183 208 203 214 195 206 215 210 208 215 219 215 207 211 211 208 202 200 192 184 184
275 273 264 253 256 256 257 254 244 232 237 238 239 234 228 217 192 190 188 183 216 190 193 215 204 212 202 208 209 206 208 213 208 201 201 198 192 187
273 271 268 261 253 250 255 255 254 248 245 238 241 238 236 212 187 198 200 205 213 170 190 215 192 216 213 204 205 204 206 207 207 201 200 199 197 195
276 273 266 266 256 250 250 248 246 243 240 245 245 247 241 203 201 206 201 211 227 168 188 202 177 212 201 207 206 204 202 200 195 198 200 197 196 193
278 273 271 269 263 259 254 246 247 246 242 240 243 249 248 239 203 194 207 195 215 208 200 177 178 185 189 198 205 201 198 197 195 196 196 194 195 197
278 274 270 265 264 260 255 249 245 244 235 237 240 245 239 243 241 207 196 207 217 209 201 197 155 149 174 196 191 204 193 201 199 196 194 193 194 177
274 275 271 271 272 268 259 248 245 250 242 235 237 234 232 229 224 226 221 208 214 225 180 186 178 177 122 141 174 191 187 188 197 196 193 196 194 182
286 285 281 279 277 269 263 256 252 248 241 231 229 230 228 227 223 219 220 228 227 230 172 194 183 187 163 148 174 180 186 182 181 182 185 194 194 194
280 282 285 285 289 282 275 259 252 246 239 235 228 229 224 227 230 223 211 219 224 263 183 195 195 193 197 164 160 175 163 189 179 177 181 188 191 168
268 271 267 271 273 279 263 258 242 238 239 240 237 227 222 217 216 205 208 194 200 204 221 196 191 206 200 150 162 163 171 171 175 174 178 180 183 168
257 250 255 263 272 275 285 243 243 236 242 249 239 220 213 204 202 185 189 179 193 175 154 138 147 163 10 163 154 173 165 149 162 165 163 173 179 176
273 270 272 264 263 267 272 272 246 243 239 241 231 219 205 197 197 192 189 190 191 172 166 161 143 134 86 328 298 165 166 135 158 155 161 152 169 177
275 270 261 262 258 260 256 261 252 241 241 237 233 218 203 198 194 191 190 184 186 173 174 167 175 177 173 193 167 205 154 134 147 153 156 151 152 170
276 265 259 256 262 263 252 258 259 253 233 237 231 213 195 195 191 186 185 183 184 172 172 178 183 189 195 188 160 167 175 148 156 144 152 140 181 224
292 281 256 248 245 240 247 247 248 239 226 226 228 207 193 183 188 188 185 186 179 172 175 184 184 172 125 117 113 126 158 156 139 149 152 158 163 199
310 299 288 249 249 251 238 238 243 233 226 225 215 189 184 183 185 179 178 175 175 174 167 151 145 143 145 133 141 132 126 133 153 165 170 162 159 204
322 319 336 299 269 259 246 220 218 217 213 199 168 171 166 163 163 164 165 165 158 148 143 142 144 147 132 136 134 137 137 140 128 137 227 251 267 274